ARIANE 3 DEB, 26806

Orbit data source: Space-Track

ARIANE 3 DEB, 26806 is space debris in HEO originally from a launch on Thu, 08 Sep 1988 UTC launched from the French Guiana (FRGUI). Debris objects in space refer to the collection of defunct objects orbiting the Earth. Examples of debris include non-operational satellites, rocket bodies, and fragments generated from explosions, collisions, or faulty payload assembly.

Loading next visibility...
Identifier
26806, 1988-081G
Orbit
HEO
Last TLE update
1 week ago
Origin
Manufacturer
Unknown
Mission
Spacecraft
Bus & Motor
Unknown
Mass
Unknown
Launch date (UTC)
1988-09-08 (37 years ago)
Launch vehicle
Unknown
Launch site
French Guiana (FRGUI)
Object type
Payload
Rocket body
Debris
Shape & HBR
Unknown
Radar Cross Section
Large (>1 m²)

Expand to show TLE details & history

TLE from 1 week ago
0 ARIANE 3 DEB
1 26806U 88081G   25174.92018046 -.00000066  00000-0  00000-0 0  9999
2 26806   5.7654  99.0735 7042156 142.8966  13.5768  2.17444328198064
Epoch: 2025-06-23T22:05Z
TLE epoch observation values (Epoch: 2025-06-23T22:05:03.591Z)
Latitude
-3.99235°
Longitude
78.55945°
Altitude
4,931.987 km
Speed
7.392 km/s
True Right ascension
21h 28m 35s
True Declination
-3° 58' 38"
Sunlit
Object was in daylight at epoch
Visualization orbit readout
Latitude
-5.34029°
Longitude
97.86719°
Altitude
7,390.708 km
Speed
6.485 km/s
Apparent Right ascension
21h 30m 23s
Apparent Declination
-26° 10' 07"
Sunlit
Object is in daylight
Visualization observer readout
Local Sidereal Time
01:49:25
Azimuth
234.277° WSW
Elevation
0.606°
Doppler factor
1
Orbital elements
Apogee altitude
36,520.585 km
Perigee altitude
1,067.384 km
Semi-major axis
25,172.122 km
Eccentricity
0.70422
Inclination
5.7654°
RAAN
99.0735°
Arg. of periapsis
142.8966°
True anomaly
Unknown
Mean anomaly
13.5768°
Eccentric anomaly
Unknown
Mean motion
0.54345 °/min
Orbital period
662.43 mins
BSTAR
0
Loading maneuver chart data...
Loading SW <> Apogee altitude chart data...
Loading historical data...
Loading historical data...
Loading historical data...
Loading historical data...
Loading historical data...
Loading historical data...
Loading historical data...

ARIANE 3 DEB Visibility forecast

Observer location: undefined°, undefined°

Span
Click to sort rows by Start time (UTC) header in descending order
Start Az.
Max El. time (UTC)
Max El. Az.
Max El.
End time (UTC)
End Az.
602 mins2025-07-03 14:13:29.924Z225.303° WSW2025-07-03 16:40:29.924Z209.46° SW28.654°2025-07-04 00:15:29.924Z163.416° S
119 mins2025-07-04 12:03:29.924Z208.923° SW2025-07-04 14:02:29.924Z167.527° S30.121°2025-07-04 14:02:29.924Z167.527° S
|